Surat Thani, Thailand

9:59 AM +07 on December 13, 2017 (GMT +0700)
Surat Thani

Weather History for VTSB - October, 2011

Change the Weather History Date:

Monday, October 17, 2011

  Actual Average Record
Temperature  
Mean Temperature 82 °F -  
Max Temperature 91 °F 86 °F - ()
Min Temperature 73 °F 72 °F - ()
Cooling Degree Days 17    
Growing Degree Days 32 (Base 50)    
Moisture  
Dew Point 75 °F    
Average Humidity 75    
Maximum Humidity 95    
Minimum Humidity 52    
Precipitation  
Precipitation 0.00 in 0.39 in - ()
Sea Level Pressure  
Sea Level Pressure 29.80 in    
Wind  
Wind Speed 3 mph ()    
Max Wind Speed 13 mph    
Max Gust Speed -    
Visibility 4.5 miles    
Events      
T = Trace of Precipitation, MM = Missing Value Source: Averaged Metar Reports

Daily Weather History Graph

Daily Weather History Graph

Search for Another Location

Airport or City:

Trip Planner

Search our weather history database for the weather conditions in past years. The results will help you decide how hot, cold, wet, or windy it might be!

Date:

Astronomy

Oct. 17, 2011 Rise Set
Actual Time 6:11 AM +07 6:06 PM +07
Civil Twilight 5:50 AM +07 6:27 PM +07
Nautical Twilight 5:25 AM +07 6:52 PM +07
Astronomical Twilight 5:01 AM +07 7:16 PM +07
Moon 10:01 PM +07 (10/17) 10:07 AM +07 (10/17)
Length of Visible Light 12h 37m
Length of Day
11h 54m
Waning Gibbous, 78% of the Moon is Illuminated
Oct 17
Waning Gibbous
Oct 20
Last Quarter
Oct 27
New
Nov 2
First Quarter
Nov 11
Full

Hourly Weather History & Observations

Time (+07) Temp. Heat Index Dew Point Humidity Pressure Visibility Wind Dir Wind Speed Gust Speed Precip Events Conditions
1:00 AM 78 °F - 75 °F 87% 29.82 in 4 mi Calm Calm - -   Mist
6:00 AM 75.2 °F - 73.4 °F 94% 29.83 in 3.1 mi Calm Calm - N/A   Mostly Cloudy
7:00 AM 74 °F - 73 °F 95% 29.83 in 4 mi Calm Calm - -   Mist
7:00 AM 75.2 °F - 73.4 °F 94% 29.83 in 3.7 mi Calm Calm - N/A   Partly Cloudy
8:00 AM 80.6 °F 87.1 °F 77.0 °F 89% 29.86 in 5.0 mi Calm Calm - N/A   Partly Cloudy
9:00 AM 82.4 °F 90.9 °F 77.0 °F 84% 29.86 in 5.0 mi Calm Calm - N/A   Partly Cloudy
10:00 AM 86.0 °F 96.9 °F 77.0 °F 74% 29.86 in 5.0 mi North 3.5 mph - N/A   Scattered Clouds
11:00 AM 87.8 °F 97.6 °F 75.2 °F 66% 29.86 in 4.3 mi North 3.5 mph - N/A   Scattered Clouds
12:00 PM 87.8 °F 95.6 °F 73.4 °F 62% 29.83 in 4.3 mi NNE 8.1 mph - N/A   Scattered Clouds
1:00 PM 90 °F - 75 °F 54% 29.78 in 7 mi ENE 3.5 mph - -   Scattered Clouds
1:00 PM 89.6 °F 96.2 °F 71.6 °F 55% 29.77 in 4.3 mi NNE 8.1 mph - N/A   Partly Cloudy
2:00 PM 91.4 °F 98.4 °F 71.6 °F 52% 29.77 in 4.3 mi NNE 9.2 mph - N/A   Scattered Clouds
3:00 PM 89.6 °F 96.2 °F 71.6 °F 55% 29.74 in 4.3 mi NE 12.7 mph - N/A   Partly Cloudy
4:00 PM 87.8 °F 95.6 °F 73.4 °F 62% 29.74 in 4.3 mi NE 12.7 mph - N/A   Partly Cloudy
5:00 PM 86.0 °F 95.1 °F 75.2 °F 70% 29.74 in 4.3 mi NE 11.5 mph - N/A   Scattered Clouds
6:00 PM 84.2 °F 92.3 °F 75.2 °F 74% 29.74 in 4.3 mi NE 8.1 mph - N/A   Scattered Clouds
7:00 PM 83 °F - 77 °F 76% 29.76 in 6 mi NNE 2.3 mph - -   Scattered Clouds
7:00 PM 82.4 °F 90.9 °F 77.0 °F 84% 29.77 in 4.3 mi NNE 6.9 mph - N/A   Scattered Clouds
8:00 PM 80.6 °F 87.1 °F 77.0 °F 89% 29.80 in 4.3 mi ENE 5.8 mph - N/A   Scattered Clouds